"Pseudo-MPEC" for P113o62

Created 2020 Aug 6 7:07:11 UT using Find_Orb

Click here for an explanation of pseudo-MPECs

 
 Astrometry: 
     P113o62  C2020 07 30=e7)y0n#D2BDf-Pm\M=W5xG7,1U_NtQ1t;Q_lM;6i'DsNZk8qZ6KF51
     P113o62  C2020 07 30vO\XUgCO(#ZAo-\,P=P#kd$7Oq9GC5P#KbXl,at/Ao%NQe$Ho(:YF51
     P113o62  C2020 07 30`+\Astrometry5O\Ef#DO[6[CeDdZI9fhqredacted;4]y(=_3SNF51
     P113o62  C2020 07 316(d5FQ8DN[;q_5Zc(FQ[click5y=Rhere9Q+AAg`Vg7I2qwG2HGqF51
     P113o62  C2020 07 31]'Zf(ff=!?Z-21l.RYncF_22VcYB1Zmnb(4DnaotA,-n:_'b'Gh:F51
     P113o62  C2020 07 31WQMyb.m1JuEni/8NPnZfor7OQCkSJ9Bpslpexplanation6T=!$lF51

Station data:
(F51) Pan-STARRS 1, Haleakala  (N20.707235 W156.255910)  US/Hawaii.
   Observers N. Primak, A. Schultz, S. Watters, J. Thiel, T. Goggia. Measurer
   PS1 Science Consortium. 1.8-m Ritchey-Chrétien + CCD.

Orbital elements:  P113o62
   Perihelion 2020 Aug 22.657348 +/- 90.8 TT = 15:46:34 (JD 2459084.157348)
Epoch 2020 Jul 31.0 TT = JDT 2459061.5   Earth MOID: 0.6275   AutoNEOCP
M 353.53576670 +/- 80               (J2000 ecliptic)
n   0.28530406 +/- 0.413            Peri.   62.41877 +/- 100
a   2.28523436 +/- 2.21             Node   328.68026 +/- 21
e   0.2984513 +/- 0.225             Incl.    8.26199 +/- 1.9
P   3.45                   H 19.1   G  0.15   U 12.1  SR
q 1.60320302 +/- 0.483    Q 2.96726571 +/- 13.9
From 6 observations 2020 July 30-31 (24.9 hr); mean residual 0".12
Residuals in arcseconds: 
200730 F51  .18-  .07+    200730 F51  .03+  .01+    200731 F51  .23+  .08+    
200730 F51  .16+  .07-    200731 F51  .11-  .07-    200731 F51  .13-  .01-    

Ephemerides (geocentric):
Date (UTC) HH   RA              Dec         delta   r     elong  mag " sig PA
---- -- -- --  -------------   -----------  ------ ------ -----  --- ---- ---
2020 08 06 07  03 42 34.959   +26 45 54.85  1.5453 1.6078  74.6 22.6  423 160
2020 08 06 08  03 42 41.629   +26 46 27.87  1.5450 1.6078  74.6 22.6  429 160
2020 08 06 09  03 42 48.299   +26 47 00.87  1.5447 1.6077  74.6 22.6  435 160
2020 08 06 10  03 42 54.969   +26 47 33.86  1.5444 1.6077  74.7 22.6  441 160
2020 08 06 11  03 43 01.640   +26 48 06.83  1.5441 1.6077  74.7 22.6  447 160
2020 08 06 12  03 43 08.311   +26 48 39.78  1.5438 1.6077  74.7 22.6  453 160
2020 08 06 13  03 43 14.982   +26 49 12.72  1.5435 1.6077  74.7 22.6  459 160
2020 08 06 14  03 43 21.653   +26 49 45.65  1.5432 1.6076  74.7 22.6  465 160
2020 08 06 15  03 43 28.324   +26 50 18.55  1.5429 1.6076  74.7 22.6  472 160
2020 08 06 16  03 43 34.996   +26 50 51.44  1.5426 1.6076  74.7 22.6  478 160
2020 08 06 17  03 43 41.668   +26 51 24.32  1.5423 1.6076  74.7 22.6  484 160
2020 08 06 18  03 43 48.340   +26 51 57.18  1.5420 1.6075  74.8 22.6  490 160
2020 08 06 19  03 43 55.012   +26 52 30.02  1.5417 1.6075  74.8 22.6  497 160
2020 08 06 20  03 44 01.684   +26 53 02.85  1.5414 1.6075  74.8 22.6  503 160
2020 08 06 21  03 44 08.357   +26 53 35.67  1.5411 1.6075  74.8 22.6  510 160
2020 08 06 22  03 44 15.029   +26 54 08.46  1.5408 1.6075  74.8 22.6  516 160
2020 08 06 23  03 44 21.702   +26 54 41.24  1.5405 1.6074  74.8 22.6  523 160
2020 08 07 00  03 44 28.375   +26 55 14.01  1.5402 1.6074  74.8 22.6  529 160
2020 08 07 01  03 44 35.049   +26 55 46.76  1.5399 1.6074  74.9 22.6  536 160
2020 08 07 02  03 44 41.722   +26 56 19.49  1.5396 1.6074  74.9 22.6  543 160
2020 08 07 03  03 44 48.396   +26 56 52.21  1.5393 1.6073  74.9 22.6  549 160
2020 08 07 04  03 44 55.070   +26 57 24.91  1.5389 1.6073  74.9 22.6  556 160
2020 08 07 05  03 45 01.744   +26 57 57.60  1.5386 1.6073  74.9 22.6  563 160
2020 08 07 06  03 45 08.418   +26 58 30.27  1.5383 1.6073  74.9 22.6  570 160
2020 08 07 07  03 45 15.092   +26 59 02.93  1.5380 1.6073  74.9 22.6  576 160
2020 08 07 08  03 45 21.767   +26 59 35.56  1.5377 1.6072  75.0 22.6  583 160
2020 08 07 09  03 45 28.441   +27 00 08.19  1.5374 1.6072  75.0 22.6  590 160
2020 08 07 10  03 45 35.116   +27 00 40.79  1.5371 1.6072  75.0 22.6  597 160
2020 08 07 11  03 45 41.791   +27 01 13.39  1.5368 1.6072  75.0 22.6  604 160
2020 08 07 12  03 45 48.467   +27 01 45.96  1.5365 1.6071  75.0 22.6  611 160
2020 08 07 13  03 45 55.142   +27 02 18.52  1.5362 1.6071  75.0 22.6  619 160
2020 08 07 14  03 46 01.818   +27 02 51.07  1.5359 1.6071  75.0 22.6  626 160
2020 08 07 15  03 46 08.494   +27 03 23.59  1.5356 1.6071  75.0 22.6  633 160
2020 08 07 16  03 46 15.169   +27 03 56.11  1.5353 1.6071  75.1 22.6  640 160
2020 08 07 17  03 46 21.846   +27 04 28.60  1.5350 1.6070  75.1 22.6  648 160
2020 08 07 18  03 46 28.522   +27 05 01.08  1.5347 1.6070  75.1 22.6  655 160
2020 08 07 19  03 46 35.198   +27 05 33.55  1.5344 1.6070  75.1 22.6  662 160
2020 08 07 20  03 46 41.875   +27 06 05.99  1.5341 1.6070  75.1 22.6  670 160
2020 08 07 21  03 46 48.552   +27 06 38.43  1.5338 1.6070  75.1 22.6  677 160
2020 08 07 22  03 46 55.229   +27 07 10.84  1.5335 1.6069  75.1 22.6  685 160
2020 08 07 23  03 47 01.906   +27 07 43.25  1.5332 1.6069  75.2 22.6  692 160
2020 08 08 00  03 47 08.583   +27 08 15.63  1.5329 1.6069  75.2 22.6  700 160
2020 08 08 01  03 47 15.260   +27 08 48.00  1.5326 1.6069  75.2 22.6  708 160
2020 08 08 02  03 47 21.938   +27 09 20.35  1.5323 1.6068  75.2 22.6  715 160
2020 08 08 03  03 47 28.616   +27 09 52.69  1.5320 1.6068  75.2 22.6  723 160
2020 08 08 04  03 47 35.293   +27 10 25.01  1.5317 1.6068  75.2 22.6  731 160
2020 08 08 05  03 47 41.971   +27 10 57.31  1.5314 1.6068  75.2 22.6  739 160
2020 08 08 06  03 47 48.650   +27 11 29.60  1.5311 1.6068  75.2 22.6  747 160